When you browse on this site, cookies collect data to enhance your experience and personalize the content and advertising you see.
Visit our Privacy Policy to learn more. By continuing to use the site, you agree to this use of cookies and data.
  • Em Portugal
  • Lista de países
  • Para 7 dias
  • Temperatura da água
  • Mapa do tempo
  • Widgets de tempo
  • user-avatar
    Iniciar Sessão

    Previsão horária em Sankt Pölten

    Hoje, 30 Maio, Sábado

    Tempo Temperatura Precipitação Vento Pressão Humidade
    00:00 +8°C° 0 mm 1 m/s 740 mmHg 91%
    01:00 +8°C° 0 mm 1 m/s 740 mmHg 95%
    02:00 +8°C° 0 mm 1 m/s 739 mmHg 94%
    03:00 +8°C° 0 mm 1 m/s 739 mmHg 94%
    04:00 +8°C° 0 mm 1 m/s 739 mmHg 93%
    05:00 +9°C° 0.1 mm 1 m/s 739 mmHg 92%
    06:00 +10°C° 0.1 mm 1 m/s 739 mmHg 91%
    07:00 +11°C° 0 mm 1 m/s 739 mmHg 90%
    08:00 +11°C° 0.4 mm 1 m/s 738 mmHg 90%
    09:00 +12°C° 0.4 mm 1 m/s 738 mmHg 89%
    10:00 +12°C° 0.4 mm 2 m/s 737 mmHg 89%
    11:00 +12°C° 0.5 mm 2 m/s 737 mmHg 88%
    12:00 +12°C° 0.5 mm 2 m/s 737 mmHg 87%
    13:00 +12°C° 0.5 mm 2 m/s 737 mmHg 87%
    14:00 +13°C° 0.4 mm 2 m/s 737 mmHg 83%
    15:00 +14°C° 0.4 mm 2 m/s 737 mmHg 79%
    16:00 +15°C° 0.4 mm 2 m/s 736 mmHg 75%
    17:00 +14°C° 0.4 mm 1 m/s 737 mmHg 80%
    18:00 +13°C° 0.4 mm 1 m/s 737 mmHg 84%
    19:00 +12°C° 0.4 mm 1 m/s 737 mmHg 89%
    20:00 +11°C° 0.2 mm 1 m/s 737 mmHg 91%
    21:00 +10°C° 0.2 mm 1 m/s 737 mmHg 92%
    22:00 +9°C° 0.2 mm 1 m/s 738 mmHg 94%
    23:00 +9°C° 0 mm 1 m/s 738 mmHg 94%

    Amanhã, 31 Maio, Domingo

    Tempo Temperatura Precipitação Vento Pressão Humidade
    00:00 +9°C° 0 mm 1 m/s 737 mmHg 94%
    01:00 +8°C° 0 mm 1 m/s 737 mmHg 95%
    02:00 +8°C° 0 mm 1 m/s 737 mmHg 95%
    03:00 +8°C° 0 mm 1 m/s 737 mmHg 95%
    04:00 +7°C° 0 mm 2 m/s 737 mmHg 95%
    05:00 +8°C° 0 mm 2 m/s 737 mmHg 94%
    06:00 +9°C° 0 mm 2 m/s 736 mmHg 92%
    07:00 +10°C° 0 mm 3 m/s 736 mmHg 90%
    08:00 +10°C° 0.3 mm 3 m/s 736 mmHg 90%
    09:00 +10°C° 0.3 mm 3 m/s 736 mmHg 90%
    10:00 +10°C° 0.3 mm 4 m/s 736 mmHg 91%
    11:00 +10°C° 1.2 mm 4 m/s 736 mmHg 92%
    12:00 +10°C° 1.2 mm 3 m/s 736 mmHg 94%
    13:00 +9°C° 1.2 mm 3 m/s 736 mmHg 95%
    14:00 +9°C° 0.8 mm 3 m/s 736 mmHg 96%
    15:00 +9°C° 0.8 mm 3 m/s 736 mmHg 96%
    16:00 +9°C° 0.8 mm 3 m/s 737 mmHg 96%
    17:00 +9°C° 0.8 mm 3 m/s 737 mmHg 97%
    18:00 +9°C° 0.8 mm 3 m/s 737 mmHg 97%
    19:00 +9°C° 0.8 mm 3 m/s 736 mmHg 98%
    20:00 +9°C° 1 mm 3 m/s 737 mmHg 98%
    21:00 +9°C° 1 mm 2 m/s 737 mmHg 98%
    22:00 +9°C° 1 mm 2 m/s 737 mmHg 98%
    23:00 +9°C° 0.3 mm 2 m/s 737 mmHg 98%

    Depois de amanhã, 1 Junho, Segunda-feira

    Tempo Temperatura Precipitação Vento Pressão Humidade
    00:00 +9°C° 0.3 mm 2 m/s 737 mmHg 98%
    01:00 +9°C° 0.3 mm 2 m/s 737 mmHg 98%
    02:00 +9°C° 0.1 mm 2 m/s 737 mmHg 98%
    03:00 +9°C° 0.1 mm 2 m/s 737 mmHg 98%
    04:00 +10°C° 0.1 mm 2 m/s 737 mmHg 98%
    05:00 +10°C° 0 mm 2 m/s 737 mmHg 97%
    06:00 +12°C° 0 mm 2 m/s 737 mmHg 96%
    07:00 +12°C° 0 mm 2 m/s 738 mmHg 95%
    08:00 +14°C° 0.2 mm 2 m/s 738 mmHg 90%
    09:00 +15°C° 0.2 mm 2 m/s 738 mmHg 86%
    10:00 +16°C° 0.2 mm 2 m/s 738 mmHg 81%
    11:00 +17°C° 0.4 mm 2 m/s 738 mmHg 77%
    12:00 +18°C° 0.4 mm 2 m/s 738 mmHg 73%
    13:00 +19°C° 0.4 mm 2 m/s 738 mmHg 69%
    14:00 +19°C° 0.2 mm 3 m/s 738 mmHg 68%
    15:00 +19°C° 0.2 mm 3 m/s 737 mmHg 67%
    16:00 +19°C° 0.2 mm 3 m/s 737 mmHg 66%
    17:00 +18°C° 0.1 mm 3 m/s 737 mmHg 71%
    18:00 +16°C° 0.1 mm 2 m/s 737 mmHg 76%
    19:00 +15°C° 0.1 mm 2 m/s 737 mmHg 81%
    20:00 +14°C° 0 mm 1 m/s 738 mmHg 84%
    21:00 +12°C° 0 mm 1 m/s 738 mmHg 86%
    22:00 +11°C° 0 mm 1 m/s 739 mmHg 88%
    23:00 +11°C° 0 mm 1 m/s 739 mmHg 89%

    2 Junho, Terça-feira

    Tempo Temperatura Precipitação Vento Pressão Humidade
    00:00 +10°C° 0 mm 1 m/s 739 mmHg 89%
    01:00 +10°C° 0 mm 1 m/s 739 mmHg 90%
    02:00 +9°C° 0 mm 1 m/s 738 mmHg 91%
    03:00 +8°C° 0 mm 1 m/s 738 mmHg 92%
    04:00 +8°C° 0 mm 1 m/s 738 mmHg 93%
    05:00 +9°C° 0 mm 1 m/s 738 mmHg 86%
    06:00 +11°C° 0 mm 1 m/s 738 mmHg 79%
    07:00 +13°C° 0 mm 1 m/s 738 mmHg 73%
    08:00 +14°C° 0 mm 1 m/s 738 mmHg 67%
    09:00 +15°C° 0 mm 2 m/s 738 mmHg 61%
    10:00 +16°C° 0 mm 2 m/s 738 mmHg 55%
    11:00 +17°C° 0 mm 2 m/s 737 mmHg 55%
    12:00 +17°C° 0 mm 2 m/s 737 mmHg 55%
    13:00 +17°C° 0 mm 2 m/s 737 mmHg 54%
    14:00 +18°C° 0 mm 2 m/s 736 mmHg 56%
    15:00 +18°C° 0 mm 2 m/s 736 mmHg 57%
    16:00 +18°C° 0 mm 2 m/s 735 mmHg 59%
    17:00 +18°C° 0.1 mm 1 m/s 735 mmHg 66%
    18:00 +16°C° 0.1 mm 1 m/s 735 mmHg 73%
    19:00 +13°C° 0.1 mm 0 m/s 735 mmHg 81%
    20:00 +13°C° 0 mm 1 m/s 735 mmHg 83%
    21:00 +12°C° 0 mm 1 m/s 735 mmHg 85%
    22:00 +11°C° 0 mm 1 m/s 735 mmHg 87%
    23:00 +11°C° 0 mm 1 m/s 734 mmHg 88%

    3 Junho, Quarta-feira

    Tempo Temperatura Precipitação Vento Pressão Humidade
    00:00 +11°C° 0 mm 1 m/s 734 mmHg 89%
    01:00 +11°C° 0 mm 1 m/s 734 mmHg 89%
    02:00 +10°C° 0 mm 1 m/s 733 mmHg 91%
    03:00 +10°C° 0 mm 1 m/s 733 mmHg 92%
    04:00 +8°C° 0 mm 0 m/s 733 mmHg 94%
    05:00 +11°C° 0 mm 1 m/s 733 mmHg 89%
    06:00 +12°C° 0 mm 1 m/s 733 mmHg 83%
    07:00 +14°C° 0 mm 1 m/s 732 mmHg 78%
    08:00 +15°C° 0 mm 1 m/s 732 mmHg 71%
    09:00 +18°C° 0 mm 1 m/s 732 mmHg 64%
    10:00 +18°C° 0 mm 2 m/s 732 mmHg 57%
    11:00 +19°C° 0 mm 2 m/s 732 mmHg 54%
    12:00 +20°C° 0 mm 2 m/s 731 mmHg 52%
    13:00 +20°C° 0 mm 2 m/s 731 mmHg 49%
    14:00 +20°C° 0 mm 2 m/s 731 mmHg 50%
    15:00 +20°C° 0 mm 2 m/s 731 mmHg 51%
    16:00 +20°C° 0 mm 2 m/s 730 mmHg 52%
    17:00 +19°C° 0 mm 1 m/s 730 mmHg 60%
    18:00 +18°C° 0 mm 1 m/s 730 mmHg 68%
    19:00 +16°C° 0 mm 1 m/s 730 mmHg 76%
    20:00 +14°C° 0 mm 1 m/s 731 mmHg 78%
    21:00 +13°C° 0 mm 1 m/s 731 mmHg 80%
    22:00 +12°C° 0 mm 1 m/s 732 mmHg 82%
    23:00 +11°C° 0 mm 1 m/s 732 mmHg 83%

    4 Junho, Quinta-feira

    Tempo Temperatura Precipitação Vento Pressão Humidade
    00:00 +11°C° 0 mm 1 m/s 732 mmHg 83%
    01:00 +10°C° 0 mm 1 m/s 732 mmHg 84%
    02:00 +10°C° 0 mm 1 m/s 732 mmHg 85%
    03:00 +9°C° 0 mm 0 m/s 732 mmHg 86%
    04:00 +8°C° 0 mm 0 m/s 732 mmHg 87%
    05:00 +10°C° 0 mm 0 m/s 732 mmHg 81%
    06:00 +13°C° 0 mm 0 m/s 732 mmHg 75%
    07:00 +15°C° 0 mm 0 m/s 732 mmHg 68%
    08:00 +18°C° 0 mm 1 m/s 732 mmHg 63%
    09:00 +19°C° 0 mm 1 m/s 732 mmHg 59%
    10:00 +20°C° 0 mm 2 m/s 732 mmHg 54%
    11:00 +20°C° 0 mm 2 m/s 732 mmHg 52%
    12:00 +21°C° 0 mm 2 m/s 732 mmHg 50%
    13:00 +23°C° 0 mm 2 m/s 732 mmHg 47%
    14:00 +23°C° 0 mm 2 m/s 732 mmHg 49%
    15:00 +23°C° 0 mm 2 m/s 731 mmHg 50%
    16:00 +23°C° 0 mm 2 m/s 731 mmHg 51%
    17:00 +20°C° 0 mm 2 m/s 731 mmHg 59%
    18:00 +18°C° 0 mm 2 m/s 731 mmHg 67%
    19:00 +18°C° 0 mm 1 m/s 731 mmHg 75%
    20:00 +16°C° 0 mm 1 m/s 731 mmHg 77%
    21:00 +14°C° 0 mm 1 m/s 731 mmHg 80%
    22:00 +13°C° 0 mm 1 m/s 731 mmHg 82%
    23:00 +12°C° 0 mm 1 m/s 731 mmHg 83%
    Mostrar mais